Show Low, AZ

2:23 PM MST on December 18, 2017 (GMT -0700)
Show Low Municipal

Weather History for KSOW - March, 2014

Change the Weather History Date:

Wednesday, March 26, 2014

  Actual Average Record
Temperature  
Mean Temperature 46 °F -  
Max Temperature 55 °F 57 °F 76 °F (1988)
Min Temperature 37 °F 36 °F 17 °F (1976)
Degree Days  
Heating Degree Days 19    
Moisture  
Dew Point 25 °F    
Average Humidity 46    
Maximum Humidity 65    
Minimum Humidity 25    
Precipitation  
Precipitation 0.00 in - - ()
Sea Level Pressure  
Sea Level Pressure 29.86 in    
Wind  
Wind Speed 20 mph (SSW)    
Max Wind Speed 46 mph    
Max Gust Speed 58 mph    
Visibility 10 miles    
Events      
Averages and records for this station are not official NWS values.
T = Trace of Precipitation, MM = Missing Value Source: NWS Daily Summary

Daily Weather History Graph

Daily Weather History Graph

Search for Another Location

Airport or City:

Trip Planner

Search our weather history database for the weather conditions in past years. The results will help you decide how hot, cold, wet, or windy it might be!

Date:

Astronomy

Mar. 26, 2014 Rise Set
Actual Time 6:15 AM MST 6:36 PM MST
Civil Twilight 5:50 AM MST 7:01 PM MST
Nautical Twilight 5:20 AM MST 7:30 PM MST
Astronomical Twilight 4:51 AM MST 8:00 PM MST
Moon 3:15 AM MST (3/26) 2:28 PM MST (3/26)
Length of Visible Light 13h 11m
Length of Day
12h 21m
Waning Crescent, 21% of the Moon is Illuminated
Mar 26
Waning Crescent
Mar 30
New
Apr 7
First Quarter
Apr 15
Full
Apr 22
Last Quarter

Hourly Weather History & Observations

Time (MST) Temp. Windchill Dew Point Humidity Pressure Visibility Wind Dir Wind Speed Gust Speed Precip Events Conditions
12:15 AM 39.2 °F 33.0 °F 26.6 °F 61% 29.97 in 10.0 mi South 9.2 mph - N/A   Mostly Cloudy
12:35 AM 41.0 °F 33.9 °F 26.6 °F 57% 29.97 in 10.0 mi South 12.7 mph - N/A   Mostly Cloudy
12:55 AM 39.2 °F 31.6 °F 26.6 °F 61% 29.96 in 10.0 mi South 12.7 mph - N/A   Partly Cloudy
1:15 AM 39.2 °F 31.6 °F 26.6 °F 61% 29.95 in 10.0 mi South 12.7 mph - N/A   Clear
1:35 AM 37.4 °F 29.8 °F 26.6 °F 65% 29.95 in 10.0 mi South 11.5 mph - N/A   Clear
1:55 AM 37.4 °F 29.3 °F 26.6 °F 65% 29.94 in 10.0 mi South 12.7 mph - N/A   Clear
2:15 AM 39.2 °F 31.6 °F 26.6 °F 61% 29.93 in 10.0 mi South 12.7 mph - N/A   Clear
2:35 AM 39.2 °F 31.6 °F 26.6 °F 61% 29.93 in 10.0 mi South 12.7 mph - N/A   Clear
2:55 AM 37.4 °F 30.3 °F 26.6 °F 65% 29.93 in 10.0 mi South 10.4 mph - N/A   Clear
3:15 AM 37.4 °F 31.4 °F 26.6 °F 65% 29.92 in 10.0 mi South 8.1 mph - N/A   Clear
3:35 AM 39.2 °F 30.5 °F 26.6 °F 61% 29.91 in 10.0 mi South 16.1 mph - N/A   Clear
3:55 AM 39.2 °F 31.6 °F 28.4 °F 65% 29.92 in 10.0 mi South 12.7 mph - N/A   Clear
4:15 AM 39.2 °F 32.0 °F 26.6 °F 61% 29.92 in 10.0 mi South 11.5 mph - N/A   Clear
4:35 AM 37.4 °F 30.8 °F 26.6 °F 65% 29.93 in 10.0 mi South 9.2 mph - N/A   Clear
4:55 AM 37.4 °F 30.3 °F 26.6 °F 65% 29.92 in 10.0 mi South 10.4 mph - N/A   Clear
5:15 AM 39.2 °F 32.5 °F 26.6 °F 61% 29.93 in 10.0 mi South 10.4 mph - N/A   Clear
5:35 AM 39.2 °F 31.2 °F 26.6 °F 61% 29.92 in 10.0 mi South 13.8 mph 19.6 mph N/A   Clear
5:55 AM 39.2 °F 31.6 °F 26.6 °F 61% 29.92 in 10.0 mi South 12.7 mph - N/A   Clear
6:15 AM 39.2 °F 32.0 °F 26.6 °F 61% 29.92 in 10.0 mi South 11.5 mph - N/A   Clear
6:35 AM 41.0 °F 34.3 °F 26.6 °F 57% 29.92 in 10.0 mi South 11.5 mph - N/A   Clear
6:55 AM 41.0 °F 32.8 °F 26.6 °F 57% 29.92 in 10.0 mi South 16.1 mph - N/A   Clear
7:15 AM 41.0 °F 34.3 °F 26.6 °F 57% 29.93 in 10.0 mi South 11.5 mph - N/A   Clear
7:35 AM 41.0 °F 35.2 °F 26.6 °F 57% 29.93 in 10.0 mi South 9.2 mph - N/A   Clear
7:55 AM 44.6 °F 36.6 °F 28.4 °F 53% 29.91 in 10.0 mi South 19.6 mph - N/A   Clear
8:15 AM 46.4 °F 38.5 °F 26.6 °F 46% 29.92 in 10.0 mi South 21.9 mph 28.8 mph N/A   Clear
8:35 AM 48.2 °F - 26.6 °F 43% 29.91 in 10.0 mi South 25.3 mph 31.1 mph N/A   Clear
8:55 AM 48.2 °F - 26.6 °F 43% 29.90 in 10.0 mi SSW 24.2 mph 33.4 mph N/A   Clear
9:15 AM 50.0 °F - 26.6 °F 40% 29.91 in 10.0 mi SSW 25.3 mph 34.5 mph N/A   Clear
9:35 AM 50.0 °F - 26.6 °F 40% 29.90 in 10.0 mi SSW 28.8 mph 39.1 mph N/A   Clear
9:55 AM 50.0 °F - 26.6 °F 40% 29.90 in 10.0 mi SSW 26.5 mph 40.3 mph N/A   Clear
10:15 AM 53.6 °F - 26.6 °F 35% 29.89 in 10.0 mi SW 32.2 mph 42.6 mph N/A   Clear
10:35 AM 53.6 °F - 24.8 °F 33% 29.89 in 10.0 mi SSW 34.5 mph 43.7 mph N/A   Clear
10:55 AM 53.6 °F - 24.8 °F 33% 29.88 in 10.0 mi South 32.2 mph 43.7 mph N/A   Scattered Clouds
11:15 AM 53.6 °F - 23.0 °F 30% 29.87 in 10.0 mi SSW 35.7 mph 44.9 mph N/A   Scattered Clouds
11:35 AM 55.4 °F - 23.0 °F 29% 29.85 in 10.0 mi SSW 36.8 mph 47.2 mph N/A   Partly Cloudy
11:55 AM 55.4 °F - 23.0 °F 29% 29.83 in 10.0 mi SSW 34.5 mph 48.3 mph N/A   Clear
12:15 PM 53.6 °F - 23.0 °F 30% 29.83 in 10.0 mi SSW 33.4 mph 51.8 mph N/A   Clear
12:35 PM 55.4 °F - 19.4 °F 25% 29.82 in 10.0 mi SW 34.5 mph 57.5 mph N/A   Clear
12:55 PM 55.4 °F - 19.4 °F 25% 29.82 in 10.0 mi SSW 34.5 mph 54.1 mph N/A   Clear
1:15 PM 55.4 °F - 19.4 °F 25% 29.81 in 10.0 mi SSW 40.3 mph 55.2 mph N/A   Clear
1:35 PM 53.6 °F - 19.4 °F 26% 29.81 in 10.0 mi SW 33.4 mph 51.8 mph N/A   Clear
1:55 PM 55.4 °F - 21.2 °F 26% 29.80 in 10.0 mi SW 46.0 mph 55.2 mph N/A   Clear
2:15 PM 55.4 °F - 21.2 °F 26% 29.79 in 10.0 mi SSW 40.3 mph 56.4 mph N/A   Clear
2:35 PM 55.4 °F - 21.2 °F 26% 29.79 in 10.0 mi SSW 43.7 mph 51.8 mph N/A   Clear
2:55 PM 55.4 °F - 21.2 °F 26% 29.79 in 10.0 mi SSW 36.8 mph 51.8 mph N/A   Clear
3:15 PM 55.4 °F - 23.0 °F 29% 29.78 in 10.0 mi SSW 34.5 mph 54.1 mph N/A   Clear
3:35 PM 55.4 °F - 23.0 °F 29% 29.77 in 10.0 mi SW 41.4 mph 49.5 mph N/A   Clear
3:55 PM 55.4 °F - 21.2 °F 26% 29.77 in 10.0 mi SW 41.4 mph 48.3 mph N/A   Clear
4:15 PM 55.4 °F - 23.0 °F 29% 29.76 in 10.0 mi SW 35.7 mph 50.6 mph N/A   Clear
4:35 PM 53.6 °F - 23.0 °F 30% 29.79 in 10.0 mi SW 26.5 mph 46.0 mph N/A   Clear
4:55 PM 53.6 °F - 23.0 °F 30% 29.77 in 10.0 mi SSW 39.1 mph 49.5 mph N/A   Clear
5:15 PM 50.0 °F - 21.2 °F 32% 29.77 in 10.0 mi SSW 31.1 mph 41.4 mph N/A   Clear
5:35 PM 50.0 °F - 23.0 °F 35% 29.77 in 10.0 mi SW 34.5 mph 42.6 mph N/A   Clear
5:55 PM 48.2 °F - 23.0 °F 37% 29.76 in 10.0 mi SW 33.4 mph 41.4 mph N/A   Clear
6:15 PM 48.2 °F - 23.0 °F 37% 29.75 in 10.0 mi SW 33.4 mph 44.9 mph N/A   Clear
6:35 PM 46.4 °F 36.5 °F 24.8 °F 43% 29.75 in 10.0 mi SW 34.5 mph 39.1 mph N/A   Clear
6:55 PM 46.4 °F 36.9 °F 26.6 °F 46% 29.75 in 10.0 mi SW 32.2 mph 41.4 mph N/A   Clear
7:15 PM 46.4 °F 36.5 °F 28.4 °F 50% 29.74 in 10.0 mi SW 34.5 mph 47.2 mph N/A   Clear
7:35 PM 46.4 °F 36.4 °F 28.4 °F 50% 29.75 in 10.0 mi SW 35.7 mph 47.2 mph N/A   Clear
7:55 PM 44.6 °F 35.1 °F 26.6 °F 49% 29.78 in 10.0 mi SW 27.6 mph 41.4 mph N/A   Clear
8:15 PM 44.6 °F 35.1 °F 26.6 °F 49% 29.80 in 10.0 mi WSW 27.6 mph 40.3 mph N/A   Clear
8:35 PM 44.6 °F 35.9 °F 26.6 °F 49% 29.81 in 10.0 mi SW 23.0 mph 32.2 mph N/A   Clear
8:55 PM 44.6 °F 36.6 °F 26.6 °F 49% 29.83 in 10.0 mi WSW 19.6 mph 32.2 mph N/A   Clear
9:15 PM 42.8 °F 34.8 °F 26.6 °F 53% 29.85 in 10.0 mi WSW 17.3 mph 24.2 mph N/A   Scattered Clouds
9:35 PM 42.8 °F 35.4 °F 26.6 °F 53% 29.86 in 10.0 mi WSW 15.0 mph - N/A   Mostly Cloudy
9:55 PM 42.8 °F 35.4 °F 26.6 °F 53% 29.88 in 10.0 mi WSW 15.0 mph 20.7 mph N/A   Mostly Cloudy
10:15 PM 42.8 °F 35.4 °F 26.6 °F 53% 29.88 in 10.0 mi WSW 15.0 mph 24.2 mph N/A   Overcast
10:35 PM 41.0 °F 32.2 °F 24.8 °F 53% 29.89 in 10.0 mi SW 18.4 mph 25.3 mph N/A   Mostly Cloudy
10:55 PM 41.0 °F 31.9 °F 23.0 °F 49% 29.89 in 10.0 mi SW 19.6 mph 28.8 mph N/A   Mostly Cloudy
11:15 PM 41.0 °F 31.1 °F 23.0 °F 49% 29.88 in 10.0 mi SW 23.0 mph 34.5 mph N/A   Overcast
11:35 PM 41.0 °F 32.2 °F 23.0 °F 49% 29.90 in 10.0 mi WSW 18.4 mph 31.1 mph N/A   Overcast
11:55 PM 41.0 °F 33.1 °F 23.0 °F 49% 29.90 in 10.0 mi WSW 15.0 mph 23.0 mph N/A   Mostly Cloudy